Temperature
18 18 18 18 18 18 18 18 18 18 19 19 19 19 19 19 19 19 19 19 19 19 19 19 19 19 19 19 19 19 19 19 19 19 19 19 19 19 18 19 18 18 19
18 18 18 18 18 18 18 18 18 18 18 18 18 18 18 18 18 19 19 19 19 19 19 19 19 19 19 19 19 19 19 18 19 18 18 18 18 18 18 18 18 18 19
18 18 18 18 18 18 18 18 18 18 18 18 18 18 18 18 18 18 18 18 18 18 19 19 19 19 19 18 18 18 18 18 18 18 18 18 18 18 18 18 18 18 18
18 18 17 18 18 18 18 18 18 18 18 18 18 18 18 18 18 18 18 18 18 18 18 18 18 18 18 18 18 18 18 18 18 18 18 17 17 18 18 18 18 18 18
18 18 18 18 18 18 18 18 18 18 18 18 18 18 18 18 18 18 18 18 18 18 18 18 18 18 18 18 18 18 18 18 18 18 17 17 17 18 18 18 18 18 18
18 18 17 18 18 18 17 18 18 18 18 17 17 17 17 17 18 18 18 18 18 18 18 18 18 18 18 18 18 18 18 18 18 17 17 17 17 18 18 18 18 18 18
18 18 17 18 18 17 17 17 17 17 17 17 17 17 17 17 17 17 17 17 18 18 18 18 17 18 18 18 18 18 18 18 17 17 17 17 17 18 18 18 18 18 18
18 17 17 17 17 17 17 17 17 17 17 17 17 17 17 17 17 17 17 17 17 17 17 17 17 17 17 17 18 18 18 18 17 17 17 17 17 18 18 18 18 18 18
17 17 17 17 16 17 16 16 16 16 16 16 16 16 16 17 17 17 17 17 17 17 17 17 17 17 17 17 17 17 18 18 17 17 17 17 18 18 18 18 18 18 18
17 17 17 16 16 16 16 16 16 16 16 16 16 16 16 16 16 16 16 16 17 17 17 17 17 17 17 17 17 17 17 17 17 17 17 17 18 18 18 18 18 18 18
17 17 17 16 16 15 15 15 15 15 15 15 15 15 15 15 15 15 16 16 16 16 17 17 17 17 17 17 17 17 17 17 17 17 17 17 18 18 18 18 18 18 18
18 17 17 16 16 15 15 15 15 15 14 14 15 15 15 15 15 15 15 16 16 16 16 17 17 17 17 17 17 17 17 17 17 17 17 17 18 18 18 18 18 18 18
18 17 16 16 16 15 15 15 14 14 14 14 14 14 14 14 15 15 15 15 15 15 16 16 16 16 16 17 17 17 17 17 17 17 17 18 18 17 18 17 18 18 17
17 17 16 16 15 15 15 14 14 14 14 14 14 14 14 14 14 15 15 15 15 15 15 16 16 16 16 16 16 17 17 17 17 17 17 18 18 17 17 17 17 18 18
17 16 16 15 15 15 14 14 14 14 14 14 14 14 14 14 14 14 14 15 15 15 15 15 16 16 16 16 16 16 17 17 17 17 17 17 18 17 17 17 17 17 17
17 17 16 15 15 14 14 14 14 14 14 14 14 14 14 14 14 14 14 14 15 15 15 15 15 16 16 16 16 16 16 17 17 17 17 17 18 18 17 17 17 17 17
17 16 16 15 15 14 14 14 14 14 14 13 13 13 13 13 14 14 14 14 14 14 14 15 15 15 15 16 16 16 16 17 17 17 17 17 17 17 18 18 18 17 17
17 16 15 15 14 14 14 13 13 13 13 13 13 13 13 13 13 13 14 14 14 14 14 14 15 15 15 15 15 16 16 16 16 17 17 17 17 17 17 18 18 18 18
17 16 15 15 14 14 13 13 13 13 13 13 13 13 13 13 13 13 13 13 14 14 14 14 14 15 15 15 15 16 16 16 16 16 17 17 17 17 17 17 18 18 18
16 16 15 14 14 14 13 13 13 13 13 13 13 12 12 12 13 13 13 13 13 13 13 14 14 14 14 15 15 15 16 16 16 16 16 17 17 17 17 17 17 17 18
16 16 15 15 14 13 13 13 13 13 13 13 12 12 12 12 12 12 13 13 13 13 13 13 14 14 14 14 15 15 15 16 16 16 16 17 17 17 17 17 17 17 17
16 16 16 15 14 13 13 13 12 12 12 12 12 12 12 12 12 12 12 12 12 13 13 13 13 14 14 14 14 15 16 16 15 16 16 16 16 17 17 17 17 17 17
16 16 15 15 14 13 13 12 12 12 12 12 12 12 12 12 12 12 12 12 12 12 12 13 13 13 14 14 14 14 15 16 16 15 16 16 16 16 16 17 17 17 17
16 16 15 14 14 13 13 13 13 12 13 12 12 12 12 12 12 12 12 12 12 12 12 13 12 13 13 13 14 14 14 14 15 15 15 15 15 16 16 16 16 17 17
16 16 15 14 14 13 13 12 12 12 12 12 12 12 12 12 11 11 12 12 12 12 12 12 12 12 13 13 13 13 14 14 14 15 15 15 15 15 16 16 16 16 16
16 16 15 14 14 13 13 13 12 12 12 12 12 12 12 12 12 12 11 12 12 12 12 12 12 12 12 12 13 13 13 14 14 14 15 15 15 15 15 15 16 16 16
Wind_Speed
4 6 7 4 4 4 4 4 3 3 3 3 3 2 3 3 3 3 2 2 2 1 0 0 1 1 1 2 2 2 2 2 2 2 2 2 2 3 3 3 3 6 8
5 7 7 4 4 4 3 2 2 2 3 2 2 2 3 3 3 3 3 3 3 2 2 1 1 0 0 0 0 0 1 1 1 1 0 2 3 2 2 2 1 5 7
6 7 7 4 3 2 2 1 1 1 2 2 3 3 4 5 5 5 5 5 5 4 4 3 2 2 1 1 1 1 1 1 1 1 4 4 4 4 2 3 3 5 6
6 6 5 5 3 2 1 1 1 2 3 4 4 5 5 6 6 6 6 6 6 6 6 5 4 3 2 2 2 2 2 2 2 4 6 2 2 6 2 3 4 5 5
6 5 6 4 3 2 2 1 1 2 4 5 5 6 6 7 7 7 7 8 8 7 7 6 5 4 4 3 3 3 3 3 4 8 4 2 1 4 2 3 4 5 5
6 5 6 5 4 3 2 2 2 2 3 4 5 6 7 7 7 8 8 8 8 8 7 7 6 5 5 4 4 4 4 4 7 5 3 3 2 3 2 2 3 5 5
6 5 6 6 5 4 3 3 3 3 4 4 5 6 7 7 7 7 7 8 8 9 8 8 7 6 6 5 5 5 5 5 7 4 4 3 1 2 2 3 4 5 6
5 4 5 6 6 6 6 5 4 4 4 4 4 5 6 6 6 6 6 6 7 8 8 8 8 7 6 6 6 6 5 7 7 5 4 3 2 1 3 3 4 5 6
4 3 3 3 4 4 5 6 6 5 5 5 5 5 5 6 6 6 6 6 7 7 8 8 8 7 7 6 6 6 6 5 8 5 6 4 3 3 4 4 5 5 6
3 2 3 3 4 4 4 5 6 6 6 5 5 4 5 6 7 6 7 5 6 6 7 7 6 6 7 7 7 7 5 7 9 6 6 2 3 4 5 4 5 5 6
2 1 2 3 4 4 5 5 5 4 3 5 4 3 6 7 7 6 4 4 5 6 7 7 7 6 6 6 6 6 7 8 5 6 6 2 1 5 5 5 6 6 6
1 1 2 3 4 5 6 6 5 5 5 6 6 6 6 6 5 6 2 4 4 5 7 7 7 8 7 5 6 7 7 8 6 7 4 3 4 5 5 5 6 6 7
0 1 3 4 4 5 5 6 6 5 5 5 5 6 6 6 5 5 4 4 4 5 6 6 8 6 6 5 5 6 6 6 5 6 3 4 4 6 5 5 6 6 7
1 1 3 4 4 5 6 6 5 4 4 5 5 6 6 4 4 4 3 3 3 3 3 4 4 5 5 7 7 7 6 5 5 5 3 4 4 6 6 6 7 7 7
1 1 2 3 5 5 5 5 5 4 5 5 5 6 6 5 5 4 3 3 4 3 3 3 4 4 5 6 6 6 6 6 6 6 3 5 4 6 6 7 8 8 8
2 1 1 3 4 5 5 5 5 5 4 5 5 6 6 5 5 5 4 3 3 3 3 3 4 4 4 5 6 6 5 6 6 6 5 5 7 6 6 7 8 9 9
2 1 1 2 3 5 5 5 4 4 5 5 5 6 6 6 6 5 4 3 3 3 3 3 4 3 4 4 5 6 5 5 6 7 6 5 6 9 8 7 8 10 9
2 1 0 1 3 4 4 4 4 4 4 4 5 5 6 7 6 5 4 4 3 3 3 3 3 3 3 4 4 4 4 4 6 6 6 6 5 6 9 9 8 9 9
3 1 0 1 3 3 4 3 3 3 3 4 5 5 6 7 7 5 4 4 4 3 2 3 2 3 3 3 4 4 4 4 5 6 6 6 5 5 6 9 10 9 10
4 2 1 1 2 3 3 2 2 2 3 4 4 5 6 6 7 6 4 4 4 3 3 2 2 2 2 2 3 3 3 3 4 4 5 5 5 5 5 6 8 10 11
6 3 1 1 1 2 2 3 3 3 3 3 4 6 5 6 6 5 5 5 4 4 4 3 2 2 2 2 2 2 3 4 4 4 4 4 5 4 5 5 6 6 8
6 5 3 1 1 1 2 3 2 3 3 3 3 3 5 6 6 5 5 4 4 3 4 3 2 2 1 1 1 2 3 3 3 3 4 4 5 4 5 5 6 6 6
8 6 3 1 1 1 1 1 1 1 1 1 2 3 5 5 6 6 6 5 4 3 3 3 3 3 2 1 1 1 1 1 1 2 3 3 3 3 4 4 5 6 7
9 6 4 3 2 1 1 1 2 3 3 3 3 3 3 4 4 5 5 5 4 4 3 3 3 3 2 1 0 1 1 1 1 1 2 2 2 3 3 4 4 4 5
9 7 5 4 3 3 2 1 3 2 3 3 3 2 3 3 3 4 5 4 4 3 4 4 3 3 2 2 1 1 1 1 2 2 2 2 2 2 2 3 4 3 4
9 8 7 6 5 4 4 3 3 3 3 4 3 3 3 2 2 3 4 4 4 4 4 3 3 2 3 2 2 2 2 2 2 2 2 2 2 2 2 3 3 3 3
Wind_Direction
143 138 120 136 132 127 134 140 141 143 147 158 172 192 199 201 203 209 217 214 209 208 163 88 99 88 81 81 85 80 73 71 65 71 86 96 92 106 117 130 173 131 114
139 138 126 135 132 129 129 133 159 167 167 185 206 226 238 241 243 243 246 246 249 255 252 260 262 205 184 134 71 61 37 29 31 30 230 184 151 126 131 146 292 100 124
130 129 133 124 116 119 126 135 164 247 234 233 239 247 257 260 260 261 260 257 257 260 257 254 255 247 240 254 273 278 301 314 298 278 254 228 157 146 155 162 145 127 134
118 118 103 99 91 83 64 35 324 306 295 282 273 267 268 271 270 269 269 266 261 259 259 257 252 247 247 257 274 274 275 281 273 258 242 228 189 127 164 170 162 148 144
109 104 89 78 66 55 41 14 346 314 299 293 291 288 281 277 274 275 275 274 269 264 262 260 256 249 249 255 263 267 271 276 268 257 260 256 238 123 184 179 175 161 153
105 97 83 56 49 41 21 2 347 320 308 305 302 296 292 287 281 275 274 272 273 270 267 260 252 250 250 253 258 261 263 272 261 251 249 243 223 135 199 194 190 174 165
104 92 82 56 40 35 22 13 3 349 334 320 308 304 301 296 292 288 280 275 273 270 268 264 255 248 251 254 256 259 260 266 265 262 246 237 199 116 223 209 197 182 173
97 85 81 77 48 38 31 20 5 350 339 328 321 314 306 299 292 286 285 289 284 277 271 266 260 251 253 260 258 257 261 269 250 255 251 243 113 228 234 214 201 189 184
99 86 63 56 64 62 40 22 7 355 346 335 325 318 311 301 289 282 280 281 282 276 268 265 264 257 248 252 259 260 260 264 270 256 255 232 139 232 238 220 203 194 197
111 89 57 39 20 1 360 35 10 360 352 341 328 319 305 278 263 259 259 262 268 267 263 257 255 259 254 246 251 254 256 251 248 245 251 203 144 239 236 212 200 198 200
122 73 37 11 7 353 340 5 342 337 344 307 284 297 286 282 279 257 264 288 269 257 257 253 241 243 252 239 238 244 247 250 241 250 246 100 239 249 240 215 200 198 200
130 50 15 2 358 348 344 341 332 325 334 319 319 314 301 298 290 283 222 242 257 250 242 234 233 229 234 233 219 224 237 249 242 239 220 131 250 250 239 219 202 200 203
102 29 1 353 354 347 346 342 341 332 329 322 328 316 303 295 282 274 271 242 247 243 241 217 220 221 219 225 237 231 232 250 252 242 205 142 246 246 234 220 206 204 202
217 357 352 348 348 350 349 347 334 337 336 337 338 331 322 312 301 303 283 287 286 276 257 242 230 216 219 224 231 234 221 227 247 251 209 149 246 247 229 220 208 205 204
210 271 353 343 347 348 351 335 338 349 342 347 345 333 332 320 313 308 294 289 281 287 271 252 246 229 226 229 231 235 231 228 234 245 219 169 221 245 231 217 207 201 199
218 265 342 337 343 339 340 339 349 344 342 341 348 342 338 332 324 316 303 297 292 287 287 272 254 239 231 227 230 231 230 230 235 235 242 197 196 223 232 220 211 200 198
209 229 3 335 337 338 343 345 342 339 342 347 350 344 346 343 333 327 322 317 310 294 280 275 266 254 235 228 227 228 225 230 235 235 232 236 205 198 209 211 208 199 199
192 198 67 332 334 346 344 336 339 342 346 344 349 345 348 350 343 336 332 334 326 304 292 272 267 257 238 232 230 225 221 222 232 239 236 227 224 207 192 194 202 201 200
183 204 186 3 344 348 345 336 340 346 350 347 353 357 353 354 348 346 342 340 342 326 311 292 282 274 262 246 236 224 221 222 226 232 236 229 217 217 206 176 192 200 200
177 187 171 56 344 349 334 326 351 352 356 1 2 7 356 349 352 350 342 346 349 346 342 324 315 286 286 283 260 235 227 231 234 231 243 239 227 217 214 197 191 194 200
179 188 192 289 14 352 344 334 344 359 356 4 11 10 358 356 354 355 346 356 352 352 347 337 326 295 282 289 267 237 218 224 236 235 234 237 225 221 215 213 211 200 193
185 194 202 148 35 16 9 352 347 338 340 3 352 6 4 5 0 353 356 354 1 351 349 351 338 313 310 307 276 257 223 201 204 220 224 227 228 212 215 211 212 214 221
189 192 191 157 137 103 38 343 327 325 293 335 9 10 7 4 6 4 2 359 359 353 0 355 347 335 326 342 344 291 262 228 171 183 207 212 219 220 219 223 221 214 221
190 186 190 177 174 147 222 307 337 340 352 1 346 357 359 7 7 4 1 0 1 2 2 359 9 341 329 327 333 317 321 333 264 201 180 186 196 215 225 222 224 224 222
183 183 190 186 191 194 231 264 283 309 335 335 327 339 339 9 3 4 356 356 357 360 3 360 360 351 340 331 325 317 324 299 272 263 230 215 212 213 227 237 228 228 227
182 183 189 195 202 208 229 248 265 294 304 317 319 332 329 348 354 6 347 345 349 356 359 352 347 348 338 331 317 310 301 294 302 285 268 259 256 247 246 233 230 219 226
Height
1528 1528 1528 1529 1530 1531 1532 1533 1533 1534 1534 1534 1534 1534 1534 1535 1535 1535 1535 1534 1534 1534 1533 1533 1533 1532 1532 1532 1531 1531 1531 1530 1530 1530 1529 1529 1529 1529 1529 1529 1529 1530 1529
1528 1529 1529 1530 1531 1532 1533 1533 1533 1533 1534 1534 1534 1534 1534 1534 1534 1534 1534 1534 1534 1533 1533 1533 1533 1532 1532 1532 1531 1531 1531 1531 1530 1530 1530 1530 1530 1530 1530 1530 1530 1531 1530
1529 1530 1530 1530 1531 1532 1532 1533 1533 1533 1533 1533 1533 1533 1533 1533 1533 1533 1533 1533 1533 1533 1533 1532 1532 1532 1532 1531 1531 1531 1531 1531 1530 1530 1530 1531 1531 1530 1530 1530 1530 1531 1531
1530 1530 1531 1531 1531 1531 1532 1532 1532 1532 1532 1532 1532 1532 1532 1532 1532 1532 1532 1532 1532 1532 1532 1532 1531 1531 1531 1531 1531 1531 1531 1531 1530 1530 1531 1532 1532 1530 1530 1530 1531 1531 1532
1531 1531 1531 1531 1531 1531 1531 1531 1531 1531 1530 1530 1530 1530 1530 1530 1530 1530 1530 1530 1530 1530 1530 1531 1530 1530 1530 1530 1530 1530 1530 1530 1530 1530 1531 1531 1531 1530 1530 1530 1531 1531 1532
1531 1531 1531 1531 1531 1530 1530 1530 1529 1529 1529 1529 1528 1528 1528 1528 1528 1528 1528 1528 1528 1529 1529 1529 1529 1529 1529 1529 1529 1530 1530 1530 1530 1531 1531 1530 1531 1530 1530 1530 1531 1531 1532
1532 1532 1532 1530 1530 1529 1529 1528 1528 1528 1527 1527 1526 1526 1526 1526 1526 1526 1526 1526 1526 1526 1527 1527 1528 1528 1528 1528 1528 1528 1529 1529 1530 1531 1530 1530 1530 1529 1530 1530 1531 1531 1532
1532 1532 1531 1530 1529 1529 1528 1527 1526 1526 1525 1525 1524 1524 1524 1524 1523 1523 1524 1524 1524 1524 1525 1525 1526 1526 1526 1526 1527 1527 1528 1528 1530 1531 1530 1530 1529 1529 1529 1530 1530 1531 1532
1532 1532 1532 1531 1529 1528 1527 1526 1525 1524 1523 1523 1522 1521 1521 1521 1521 1521 1521 1521 1521 1522 1522 1523 1523 1524 1524 1525 1525 1526 1526 1527 1528 1529 1529 1529 1528 1528 1529 1529 1530 1531 1532
1532 1532 1531 1530 1529 1528 1527 1525 1523 1522 1521 1521 1520 1519 1519 1518 1518 1518 1518 1518 1518 1519 1519 1520 1520 1521 1522 1523 1523 1524 1525 1525 1526 1528 1528 1528 1527 1528 1528 1529 1530 1531 1532
1532 1532 1531 1530 1529 1527 1526 1524 1522 1521 1520 1519 1519 1517 1517 1517 1517 1516 1515 1515 1515 1516 1516 1517 1518 1518 1519 1520 1521 1522 1523 1525 1526 1526 1527 1526 1526 1527 1528 1528 1529 1530 1531
1533 1532 1531 1530 1528 1527 1525 1523 1521 1520 1519 1518 1517 1516 1516 1515 1514 1514 1513 1512 1512 1513 1513 1514 1515 1516 1517 1518 1519 1520 1522 1523 1524 1525 1526 1525 1525 1526 1527 1528 1529 1530 1531
1532 1531 1530 1529 1527 1526 1524 1523 1521 1519 1518 1517 1516 1515 1514 1513 1513 1512 1512 1511 1511 1510 1511 1511 1512 1513 1514 1516 1517 1518 1519 1521 1523 1524 1524 1523 1524 1525 1526 1527 1528 1529 1530
1531 1531 1529 1528 1527 1525 1524 1522 1520 1519 1518 1517 1515 1514 1513 1512 1511 1511 1510 1510 1509 1509 1509 1509 1510 1511 1512 1513 1514 1516 1518 1519 1520 1521 1522 1521 1522 1523 1525 1525 1527 1528 1529
1530 1530 1529 1527 1526 1524 1522 1521 1520 1518 1517 1516 1514 1513 1512 1511 1510 1509 1508 1507 1507 1507 1507 1507 1508 1509 1509 1511 1512 1514 1515 1517 1518 1519 1520 1520 1521 1522 1523 1524 1526 1527 1528
1529 1529 1528 1526 1525 1523 1522 1521 1520 1518 1516 1515 1514 1512 1511 1510 1509 1508 1507 1506 1506 1505 1505 1505 1506 1506 1507 1508 1509 1511 1512 1514 1516 1517 1518 1519 1519 1521 1522 1523 1524 1525 1527
1528 1528 1527 1525 1524 1523 1521 1520 1519 1517 1516 1515 1513 1512 1510 1509 1508 1507 1506 1505 1504 1504 1504 1504 1504 1504 1505 1506 1507 1509 1510 1512 1513 1515 1516 1518 1519 1519 1521 1522 1523 1525 1526
1527 1527 1525 1524 1523 1522 1520 1519 1518 1517 1515 1514 1513 1511 1510 1508 1507 1505 1504 1504 1503 1502 1502 1502 1502 1503 1504 1504 1505 1506 1507 1509 1510 1512 1514 1516 1517 1518 1519 1520 1522 1524 1525
1525 1525 1525 1524 1522 1521 1519 1518 1517 1516 1515 1514 1512 1511 1509 1508 1506 1505 1503 1502 1502 1501 1501 1501 1501 1501 1502 1502 1503 1504 1505 1507 1508 1510 1512 1514 1515 1516 1518 1519 1520 1522 1524
1524 1524 1524 1522 1521 1520 1519 1518 1517 1516 1515 1514 1512 1510 1508 1507 1506 1504 1503 1502 1501 1501 1500 1500 1500 1500 1500 1501 1502 1502 1503 1504 1506 1508 1509 1511 1513 1514 1516 1518 1519 1520 1522
1522 1522 1523 1522 1521 1519 1519 1518 1517 1517 1515 1514 1512 1510 1508 1507 1505 1504 1503 1502 1500 1500 1500 1499 1499 1499 1499 1500 1501 1501 1502 1503 1504 1505 1507 1508 1510 1512 1513 1515 1517 1519 1521
1520 1521 1522 1521 1520 1519 1518 1518 1517 1515 1515 1513 1512 1510 1509 1507 1505 1504 1503 1502 1501 1500 1499 1499 1498 1498 1499 1499 1499 1500 1501 1503 1502 1503 1505 1506 1508 1509 1511 1513 1515 1517 1519
1518 1520 1520 1520 1519 1518 1517 1517 1516 1516 1515 1514 1513 1511 1509 1507 1505 1504 1503 1502 1501 1500 1499 1498 1498 1498 1498 1498 1498 1499 1500 1500 1501 1502 1503 1504 1505 1506 1508 1510 1512 1514 1516
1517 1518 1519 1519 1518 1518 1517 1517 1517 1516 1515 1514 1513 1511 1509 1507 1506 1504 1503 1502 1501 1500 1499 1499 1498 1498 1497 1498 1498 1498 1500 1500 1501 1501 1502 1503 1503 1505 1506 1508 1509 1511 1513
1514 1515 1516 1517 1517 1517 1516 1516 1516 1516 1515 1514 1512 1511 1510 1508 1506 1505 1503 1502 1501 1500 1499 1498 1498 1498 1498 1498 1498 1498 1498 1499 1499 1500 1501 1502 1503 1503 1504 1505 1507 1509 1510
1511 1512 1514 1515 1515 1515 1515 1516 1515 1515 1514 1513 1512 1511 1510 1509 1507 1505 1503 1502 1502 1501 1499 1498 1498 1497 1497 1497 1497 1498 1498 1499 1499 1499 1500 1500 1501 1502 1502 1503 1505 1506 1507